FW9226 Weather Reports


Display with metric or nautical units.
time (UTC)temp
F
wind
direction
speed
MPH
gust
MPH
rain 1hr
in
rain 24hr
in
rain mn
in
humidity
%
barometer
mb
20260901023006 64 264 0.0 1.0 0.00 0.00 0.00 47 1015.5
20260901022504 64 264 0.0 1.0 0.00 0.00 0.00 47 1015.5
20260901022006 65 265 0.0 0.0 0.00 0.00 0.00 46 1015.5
20260901021504 65 264 0.0 0.0 0.00 0.00 0.00 45 1015.6
20260901021005 66 265 0.0 0.0 0.00 0.00 0.00 45 1015.6
20260901020007 66 264 0.0 0.0 0.00 0.00 0.00 42 1015.6
20260901015504 67 264 0.0 0.0 0.00 0.00 0.00 41 1015.7
20260901015004 67 264 0.0 0.0 0.00 0.00 0.00 40 1015.7
20260901014504 67 265 0.0 0.0 0.00 0.00 0.00 39 1015.7
20260901014004 68 235 0.0 1.0 0.00 0.00 0.00 39 1015.7
20260901013504 68 234 0.0 1.0 0.00 0.00 0.00 38 1015.7
20260901013006 68 235 0.0 1.0 0.00 0.00 0.00 38 1015.8
20260901012504 69 235 0.0 2.0 0.00 0.00 0.00 37 1015.9
20260901012009 69 232 0.0 3.0 0.00 0.00 0.00 36 1015.9
20260901011005 70 107 0.0 2.0 0.00 0.00 0.00 36 1015.8
20260901010504 70 117 1.0 2.0 0.00 0.00 0.00 36 1015.9
20260901010008 70 271 1.0 3.0 0.00 0.00 0.00 35 1015.9
20260901005502 70 233 0.0 3.0 0.00 0.00 0.00 35 1015.8
20260901005005 71 243 0.0 3.0 0.00 0.00 0.00 34 1015.9
20260901004505 71 188 0.0 1.0 0.00 0.00 0.00 34 1015.8
20260901004004 71 231 0.0 2.0 0.00 0.00 0.00 35 1015.9
20260901003503 72 271 0.0 2.0 0.00 0.00 0.00 34 1015.9
20260901003005 72 206 0.0 2.0 0.00 0.00 0.00 34 1016.0
20260901002504 72 127 1.0 4.0 0.00 0.00 0.00 34 1016.0
20260901002005 73 149 1.0 4.0 0.00 0.00 0.00 33 1016.0
20260901001504 73 141 1.0 4.0 0.00 0.00 0.00 33 1016.1
20260901000501 74 131 2.0 7.0 0.00 0.00 0.00 32 1016.0
20260901000008 75 169 1.0 4.0 0.00 0.00 0.00 31 1016.0
20260831235503 75 96 1.0 4.0 0.00 0.00 0.00 30 1016.1
20260831235005 76 256 1.0 5.0 0.00 0.00 0.00 30 1016.0
20260831234504 76 140 2.0 5.0 0.00 0.00 0.00 29 1016.1
20260831233503 77 135 1.0 7.0 0.00 0.00 0.00 30 1016.2
20260831233005 77 266 1.0 7.0 0.00 0.00 0.00 30 1016.2
20260831232502 77 200 2.0 5.0 0.00 0.00 0.00 29 1016.2
20260831232005 77 270 2.0 5.0 0.00 0.00 0.00 29 1016.3
20260831231501 77 124 2.0 7.0 0.00 0.00 0.00 30 1016.2
20260831231006 78 259 1.0 7.0 0.00 0.00 0.00 30 1016.3
20260831230504 78 131 1.0 7.0 0.00 0.00 0.00 30 1016.3
20260831225504 77 210 2.0 7.0 0.00 0.00 0.00 30 1016.3
20260831225004 77 290 2.0 5.0 0.00 0.00 0.00 29 1016.3
20260831224503 77 290 2.0 8.0 0.00 0.00 0.00 29 1016.3
20260831224003 77 112 2.0 8.0 0.00 0.00 0.00 28 1016.4
20260831223501 78 137 2.0 7.0 0.00 0.00 0.00 29 1016.5
20260831223004 78 221 2.0 8.0 0.00 0.00 0.00 29 1016.5
20260831222504 79 139 2.0 8.0 0.00 0.00 0.00 29 1016.5
20260831222006 79 167 1.0 6.0 0.00 0.00 0.00 27 1016.4
20260831221504 80 295 1.0 5.0 0.00 0.00 0.00 28 1016.4
20260831220504 79 274 2.0 9.0 0.00 0.00 0.00 29 1016.4
20260831220026 79 131 2.0 7.0 0.00 0.00 0.00 28 1016.4
20260831215005 79 249 2.0 10.0 0.00 0.00 0.00 29 1016.5
20260831214505 79 310 2.0 8.0 0.00 0.00 0.00 30 1016.6
20260831214005 79 219 2.0 5.0 0.00 0.00 0.00 29 1016.7
20260831213504 79 215 2.0 5.0 0.00 0.00 0.00 30 1016.8
20260831213004 79 217 2.0 10.0 0.00 0.00 0.00 30 1016.9
20260831212005 80 92 2.0 11.0 0.00 0.00 0.00 30 1016.8
20260831211004 79 80 2.0 8.0 0.00 0.00 0.00 31 1016.6
20260831210507 79 232 3.0 7.0 0.00 0.00 0.00 33 1016.6
20260831205507 79 157 3.0 7.0 0.00 0.00 0.00 32 1016.6
20260831205003 80 143 2.0 7.0 0.00 0.00 0.00 31 1016.5
20260831204504 81 250 2.0 7.0 0.00 0.00 0.00 30 1016.4
20260831204008 80 300 2.0 7.0 0.00 0.00 0.00 31 1016.4
20260831203503 79 240 2.0 8.0 0.00 0.00 0.00 32 1016.4
20260831202505 79 94 3.0 13.0 0.00 0.00 0.00 31 1016.5
20260831202004 81 245 2.0 7.0 0.00 0.00 0.00 29 1016.6
20260831201504 80 10 2.0 7.0 0.00 0.00 0.00 31 1016.6
20260831201004 81 310 2.0 7.0 0.00 0.00 0.00 30 1016.8
20260831200504 80 200 2.0 8.0 0.00 0.00 0.00 30 1016.8
20260831195504 79 172 4.0 12.0 0.00 0.00 0.00 30 1016.9
20260831195004 78 159 4.0 12.0 0.00 0.00 0.00 30 1016.8
20260831194004 80 226 3.0 9.0 0.00 0.00 0.00 30 1017.0
20260831193504 79 258 3.0 8.0 0.00 0.00 0.00 29 1016.8
20260831193006 80 154 2.0 9.0 0.00 0.00 0.00 29 1017.0
20260831192504 79 258 3.0 9.0 0.00 0.00 0.00 30 1017.0
20260831192004 79 140 3.0 10.0 0.00 0.00 0.00 30 1016.9
20260831191503 80 139 2.0 10.0 0.00 0.00 0.00 30 1017.0
20260831191003 80 103 2.0 6.0 0.00 0.00 0.00 30 1017.0
20260831190500 79 203 2.0 6.0 0.00 0.00 0.00 30 1017.0
20260831190008 79 150 2.0 7.0 0.00 0.00 0.00 30 1017.1
20260831185005 78 215 3.0 6.0 0.00 0.00 0.00 31 1017.0
20260831184504 79 106 2.0 8.0 0.00 0.00 0.00 31 1017.0
20260831184004 79 174 2.0 8.0 0.00 0.00 0.00 30 1017.0
20260831183503 79 316 2.0 8.0 0.00 0.00 0.00 30 1017.0
20260831183004 78 261 3.0 7.0 0.00 0.00 0.00 31 1016.9
20260831182002 77 191 2.0 8.0 0.00 0.00 0.00 31 1016.9
20260831181501 78 194 2.0 8.0 0.00 0.00 0.00 30 1016.9
20260831181004 78 92 2.0 6.0 0.00 0.00 0.00 31 1016.9
20260831180504 78 136 1.0 5.0 0.00 0.00 0.00 32 1016.8
20260831180004 78 180 2.0 5.0 0.00 0.00 0.00 32 1016.9
20260831175504 77 153 2.0 7.0 0.00 0.00 0.00 33 1016.9
20260831175004 76 116 2.0 7.0 0.00 0.00 0.00 33 1016.9
20260831174503 77 116 1.0 7.0 0.00 0.00 0.00 32 1016.9
20260831174005 77 124 2.0 6.0 0.00 0.00 0.00 32 1017.0
20260831173503 77 170 2.0 5.0 0.00 0.00 0.00 33 1016.9
20260831173004 76 164 1.0 5.0 0.00 0.00 0.00 35 1016.9
20260831172505 76 126 1.0 5.0 0.00 0.00 0.00 36 1016.9
20260831172006 76 313 1.0 4.0 0.00 0.00 0.00 36 1016.9
20260831171505 76 219 1.0 4.0 0.00 0.00 0.00 36 1016.8
20260831171005 75 113 2.0 5.0 0.00 0.00 0.00 36 1016.7
20260831170503 75 203 2.0 6.0 0.00 0.00 0.00 36 1016.8
20260831170004 75 201 2.0 6.0 0.00 0.00 0.00 36 1016.7
20260831165504 75 206 2.0 6.0 0.00 0.00 0.00 36 1016.6
20260831165005 75 237 1.0 5.0 0.00 0.00 0.00 35 1016.6
20260831164004 75 73 1.0 4.0 0.00 0.00 0.00 36 1016.5
20260831163501 74 103 1.0 4.0 0.00 0.00 0.00 37 1016.5
20260831162504 74 215 1.0 5.0 0.00 0.00 0.00 40 1016.4
20260831162006 74 103 0.0 1.0 0.00 0.00 0.00 42 1016.4
20260831161500 73 84 0.0 2.0 0.00 0.00 0.00 41 1016.5
20260831161004 72 63 0.0 2.0 0.00 0.00 0.00 41 1016.4
20260831160504 71 67 0.0 1.0 0.00 0.00 0.00 45 1016.5
20260831160008 69 39 0.0 1.0 0.00 0.00 0.00 47 1016.5
20260831155503 68 49 0.0 1.0 0.00 0.00 0.00 51 1016.4
20260831155004 67 49 0.0 1.0 0.00 0.00 0.00 54 1016.5
20260831154504 66 49 0.0 3.0 0.00 0.00 0.00 54 1016.5
20260831153504 65 44 0.0 1.0 0.00 0.00 0.00 54 1016.5
20260831153008 64 340 0.0 1.0 0.00 0.00 0.00 56 1016.5
20260831152506 64 340 0.0 1.0 0.00 0.00 0.00 57 1016.6
20260831152006 64 340 0.0 1.0 0.00 0.00 0.00 55 1016.6
20260831151506 63 340 0.0 0.0 0.00 0.00 0.00 54 1016.5
20260831150506 63 340 0.0 0.0 0.00 0.00 0.00 53 1016.4
20260831150007 63 335 0.0 1.0 0.00 0.00 0.00 53 1016.4
20260831145504 63 335 0.0 1.0 0.00 0.00 0.00 53 1016.5
20260831145004 63 335 0.0 1.0 0.00 0.00 0.00 51 1016.5
20260831144505 63 335 0.0 1.0 0.00 0.00 0.00 51 1016.5
20260831144008 62 335 0.0 1.0 0.00 0.00 0.00 51 1016.4
20260831143504 62 268 0.0 0.0 0.00 0.00 0.00 52 1016.4
20260831143005 62 268 0.0 1.0 0.00 0.00 0.00 52 1016.4
20260831142505 61 268 0.0 1.0 0.00 0.00 0.00 52 1016.4
20260831142006 60 268 0.0 1.0 0.00 0.00 0.00 53 1016.4
20260831141011 60 268 0.0 1.0 0.00 0.00 0.00 53 1016.3
20260831140505 60 268 0.0 0.0 0.00 0.00 0.00 53 1016.3
20260831140007 60 268 0.0 0.0 0.00 0.00 0.00 53 1016.2
20260831135505 60 268 0.0 1.0 0.00 0.00 0.00 52 1016.2
20260831135005 60 268 0.0 1.0 0.00 0.00 0.00 52 1016.2
20260831134505 60 268 0.0 1.0 0.00 0.00 0.00 52 1016.1
20260831134006 60 268 0.0 1.0 0.00 0.00 0.00 53 1016.0
20260831133506 59 268 0.0 1.0 0.00 0.00 0.00 53 1016.0
20260831133006 59 268 0.0 1.0 0.00 0.00 0.00 53 1015.9
20260831132503 59 268 0.0 0.0 0.00 0.00 0.00 54 1015.9
20260831132005 60 268 0.0 0.0 0.00 0.00 0.00 53 1015.9
20260831131504 60 268 0.0 1.0 0.00 0.00 0.00 53 1015.9
20260831125505 59 269 0.0 1.0 0.00 0.00 0.00 53 1015.8
20260831125005 60 269 0.0 1.0 0.00 0.00 0.00 52 1015.8
20260831124504 60 267 0.0 0.0 0.00 0.00 0.00 52 1015.9
20260831124003 60 267 0.0 1.0 0.00 0.00 0.00 52 1015.9
20260831123506 60 267 0.0 1.0 0.00 0.00 0.00 51 1016.0
20260831123006 61 267 0.0 1.0 0.00 0.00 0.00 51 1015.9
20260831122508 61 267 0.0 1.0 0.00 0.00 0.00 51 1015.9
20260831122005 61 267 0.0 1.0 0.00 0.00 0.00 51 1015.8
20260831121504 61 267 0.0 1.0 0.00 0.00 0.00 51 1015.8
20260831121004 61 267 0.0 1.0 0.00 0.00 0.00 52 1015.9
20260831120506 61 266 0.0 1.0 0.00 0.00 0.00 52 1015.8
20260831115505 61 10 0.0 1.0 0.00 0.00 0.00 52 1015.9
20260831115006 61 14 0.0 1.0 0.00 0.00 0.00 52 1015.9
20260831114503 61 14 0.0 1.0 0.00 0.00 0.00 52 1015.9
20260831113501 61 267 0.0 1.0 0.00 0.00 0.00 52 1016.1
20260831113005 61 267 0.0 0.0 0.00 0.00 0.00 52 1016.1
20260831112004 61 267 0.0 1.0 0.00 0.00 0.00 52 1016.2
20260831111504 61 267 0.0 1.0 0.00 0.00 0.00 53 1016.1
20260831111005 61 267 0.0 0.0 0.00 0.00 0.00 52 1016.1
20260831110004 61 267 0.0 1.0 0.00 0.00 0.00 52 1016.2
20260831105503 61 267 0.0 1.0 0.00 0.00 0.00 52 1016.1
20260831105004 61 267 0.0 0.0 0.00 0.00 0.00 52 1016.1
20260831104004 61 267 0.0 0.0 0.00 0.00 0.00 52 1016.1
20260831103458 62 267 0.0 1.0 0.00 0.00 0.00 52 1016.0
20260831103004 62 267 0.0 1.0 0.00 0.00 0.00 52 1015.9
20260831102001 62 266 0.0 1.0 0.00 0.00 0.00 52 1016.1
20260831101458 62 266 0.0 1.0 0.00 0.00 0.00 52 1016.1
20260831101005 62 266 0.0 1.0 0.00 0.00 0.00 52 1016.1
20260831100503 61 266 0.0 1.0 0.00 0.00 0.00 53 1016.1
20260831100007 61 266 0.0 1.0 0.00 0.00 0.00 53 1016.1
20260831095000 62 266 0.0 1.0 0.00 0.00 0.00 53 1016.1
20260831094503 62 266 0.0 1.0 0.00 0.00 0.00 53 1016.0
20260831094004 62 266 0.0 1.0 0.00 0.00 0.00 53 1016.1
20260831093502 61 267 0.0 1.0 0.00 0.00 0.00 53 1016.1
20260831093004 61 265 0.0 1.0 0.00 0.00 0.00 54 1016.0
20260831091959 61 264 0.0 1.0 0.00 0.00 0.00 54 1016.1
20260831091458 61 265 0.0 1.0 0.00 0.00 0.00 54 1016.1
20260831091004 61 264 0.0 1.0 0.00 0.00 0.00 55 1016.1
20260831090503 61 281 0.0 1.0 0.00 0.00 0.00 55 1016.2
20260831090004 61 281 0.0 1.0 0.00 0.00 0.00 55 1016.2
20260831085004 61 281 0.0 1.0 0.00 0.00 0.00 55 1016.3
20260831084003 61 285 0.0 1.0 0.00 0.00 0.00 55 1016.4
20260831083501 62 285 0.0 1.0 0.00 0.00 0.00 54 1016.4
20260831083004 61 285 0.0 1.0 0.00 0.00 0.00 54 1016.5
20260831082004 61 328 0.0 1.0 0.00 0.00 0.00 54 1016.6
20260831081503 61 328 0.0 1.0 0.00 0.00 0.00 55 1016.7
20260831080500 61 328 0.0 1.0 0.00 0.00 0.00 55 1016.7
20260831080007 61 328 0.0 1.0 0.00 0.00 0.00 55 1016.8
20260831075458 61 328 0.0 1.0 0.00 0.00 0.00 55 1016.8
20260831075004 61 328 0.0 1.0 0.00 0.00 0.00 55 1016.8
20260831074502 61 10 0.0 0.0 0.00 0.00 0.00 55 1016.8
20260831074003 61 10 0.0 0.0 0.00 0.00 0.00 56 1016.8
20260831073005 61 12 0.0 0.0 0.00 0.00 0.00 56 1016.8
20260831072504 61 12 0.0 0.0 0.00 0.00 0.00 56 1016.8
20260831071503 60 12 0.0 0.0 0.00 0.00 0.00 57 1016.8
20260831071003 60 12 0.0 0.0 0.00 0.00 0.00 58 1016.7
20260831070500 60 12 0.0 0.0 0.00 0.00 0.00 59 1016.7
20260831070008 60 12 0.0 0.0 0.00 0.00 0.00 59 1016.7
20260831065504 60 12 0.0 0.0 0.00 0.00 0.00 58 1016.8
20260831065006 60 12 0.0 0.0 0.00 0.00 0.00 59 1016.8
20260831064503 60 13 0.0 0.0 0.00 0.00 0.00 58 1016.8
20260831064005 60 12 0.0 0.0 0.00 0.00 0.00 59 1016.7
20260831063505 60 13 0.0 0.0 0.00 0.00 0.00 58 1016.8
20260831062504 61 11 0.0 1.0 0.00 0.00 0.00 57 1016.8
20260831062004 62 11 0.0 1.0 0.00 0.00 0.00 57 1016.7
20260831060504 62 11 0.0 1.0 0.00 0.00 0.00 57 1016.7
20260831060007 61 65 0.0 0.0 0.00 0.00 0.00 58 1016.7
20260831055504 61 65 0.0 1.0 0.00 0.00 0.00 59 1016.6
20260831055007 60 65 0.0 1.0 0.00 0.00 0.00 60 1016.6
20260831054004 60 65 0.0 0.0 0.00 0.00 0.00 60 1016.8
20260831053504 60 65 0.0 0.0 0.00 0.00 0.00 60 1016.8
20260831053006 60 65 0.0 1.0 0.00 0.00 0.00 60 1016.8
20260831052505 60 65 0.0 1.0 0.00 0.00 0.00 60 1016.9
20260831052005 61 65 0.0 2.0 0.00 0.00 0.00 59 1016.8
20260831051504 61 65 0.0 1.0 0.00 0.00 0.00 59 1016.8
20260831051006 61 84 0.0 2.0 0.00 0.00 0.00 59 1016.8
20260831050503 61 84 0.0 2.0 0.00 0.00 0.00 59 1016.9
20260831050008 61 100 0.0 1.0 0.00 0.00 0.00 58 1017.0
20260831045004 61 100 0.0 0.0 0.00 0.00 0.00 58 1016.9
20260831044504 61 100 0.0 0.0 0.00 0.00 0.00 58 1017.1
20260831044006 61 100 0.0 0.0 0.00 0.00 0.00 58 1017.0
20260831043505 61 100 0.0 0.0 0.00 0.00 0.00 57 1017.0
20260831042005 62 100 0.0 1.0 0.00 0.00 0.00 56 1016.9
20260831041505 62 100 0.0 1.0 0.00 0.00 0.00 56 1017.0
20260831040007 61 100 0.0 0.0 0.00 0.00 0.00 57 1016.9
20260831035506 61 100 0.0 0.0 0.00 0.00 0.00 57 1016.9
20260831035004 61 100 0.0 0.0 0.00 0.00 0.00 57 1016.9
20260831034504 62 100 0.0 0.0 0.00 0.00 0.00 56 1017.0
20260831034004 62 100 0.0 0.0 0.00 0.00 0.00 56 1016.9
20260831033505 62 100 0.0 0.0 0.00 0.00 0.00 56 1017.0
20260831033004 62 100 0.0 1.0 0.00 0.00 0.00 55 1016.9
20260831032503 63 100 0.0 1.0 0.00 0.00 0.00 55 1016.9
20260831032004 63 100 0.0 1.0 0.00 0.00 0.00 54 1016.9
20260831031504 63 100 0.0 0.0 0.00 0.00 0.00 54 1016.9
20260831031004 64 101 0.0 0.0 0.00 0.00 0.00 53 1016.8
20260831030504 64 101 0.0 0.0 0.00 0.00 0.00 52 1016.7
20260831030007 65 101 0.0 0.0 0.00 0.00 0.00 52 1016.6
20260831025505 65 101 0.0 0.0 0.00 0.00 0.00 51 1016.6
20260831025005 65 101 0.0 0.0 0.00 0.00 0.00 50 1016.7
20260831024504 66 101 0.0 0.0 0.00 0.00 0.00 50 1016.6